x

9442396 - La Push, Wa (lapw1) Weather Station

3:36am - Fri 19th Dec 2014 All times are PST. -8 hours from GMT.

  • Wind
    13mph, 20mph gusts
  • Sea Temp 46°f
  • 空気 Temp 52°f
  • Sea Pressure 1007.1mb
  • 9442396 - La Push, Wa
  • 9442396 - La Push, Wa

More Historic Weather Station data

Upgrade to MSW Pro to gain access to the past 30 days of data for over 8000 Wavebouys and Weather Stations around the globe.

Join Pro

Comparision Forecast

View Surf forecast
   
Fri 12/19 3:36am 13 20 mph 1007.1mb 46f 52f
3:30am 15 18 mph 1007.1mb 46f 52f
3:24am 16 21 mph 1007.1mb 46f 51f
3:18am 14 17 mph 1007.1mb 46f 52f
3:12am 16 22 mph 1007.1mb 46f 51f
3:06am 14 17 mph 1007.1mb 46f 52f
3:00am 13 21 mph 1007.1mb 46f 52f
2:36am 14 16 mph 1007.1mb 46f 52f
2:30am 14 17 mph 1007mb 46f 51f
2:24am 14 18 mph 1007mb 46f 52f
2:18am 14 17 mph 1006.9mb 46f 52f
2:12am 14 18 mph 1006.9mb 46f 52f
2:06am 14 20 mph 1006.8mb 46f 52f
2:00am 15 22 mph 1006.7mb 46f 52f
1:36am 14 21 mph 1006.4mb 47f 52f
1:30am 16 22 mph 1006.2mb 47f 52f
1:24am 13 21 mph 1006.1mb 48f 51f
1:18am 13 26 mph 1006mb 48f 52f
1:12am 15 20 mph 1005.9mb 49f 52f
1:06am 16 22 mph 1006mb 49f 52f
1:00am 16 20 mph 1005.9mb 49f 52f
12:36am 15 20 mph 1005.6mb 51f 52f
12:30am 15 21 mph 1005.6mb 51f 52f
12:24am 15 21 mph 1005.5mb 51f 52f
12:18am 16 22 mph 1005.5mb 51f 52f
12:12am 17 22 mph 1005.4mb 51f 52f
12:06am 17 22 mph 1005.4mb 51f 52f
12:00am 20 25 mph 1005.4mb 51f 52f
Thu 12/18 11:36pm 21 29 mph 1005mb 51f 53f
11:30pm 23 28 mph 1005mb 51f 53f
11:24pm 17 23 mph 1004.8mb 51f 52f
11:18pm 14 25 mph 1004.8mb 51f 52f
11:12pm 18 23 mph 1004.7mb 51f 53f
11:06pm 16 21 mph 1004.7mb 51f 53f
11:00pm 18 22 mph 1004.7mb 51f 53f
10:36pm 16 22 mph 1004.4mb 51f 53f
10:30pm 15 21 mph 1004.3mb 51f 53f
10:24pm 16 21 mph 1004.3mb 51f 52f
10:18pm 15 20 mph 1004.3mb 51f 51f
10:12pm 13 20 mph 1004.3mb 51f 51f
10:06pm 9 17 mph 1004.3mb 51f 51f
10:00pm 14 22 mph 1004.2mb 51f 51f
9:36pm 10 16 mph 1004.2mb 51f 51f
9:30pm 9 21 mph 1004.2mb 51f 51f
9:24pm 9 22 mph 1004.1mb 51f 50f
9:18pm 9 16 mph 1004.1mb 51f 50f
9:12pm 9 15 mph 1004mb 51f 50f
9:06pm 7 17 mph 1003.9mb 51f 50f
9:00pm 10 14 mph 1003.9mb 51f 50f
8:36pm 6 10 mph - - 49f
8:30pm 6 10 mph 1003.7mb 51f 49f
8:24pm 5 10 mph 1003.5mb 51f 49f
8:18pm 5 9 mph 1003.3mb 51f 49f
8:12pm 7 10 mph 1003.3mb 51f 48f
8:06pm 6 9 mph 1003.2mb 51f 48f
8:00pm 3 6 mph 1003mb 51f 48f
7:36pm 6 8 mph 1002.7mb 51f 48f
7:30pm 6 10 mph 1003mb 51f 48f
7:24pm 8 13 mph 1003mb 51f 48f
7:18pm 7 11 mph 1002.9mb 50f 49f
7:12pm 7 11 mph 1002.9mb 50f 49f
7:06pm 9 11 mph 1002.8mb 50f 49f
7:00pm 9 15 mph 1002.6mb 50f 49f
6:36pm 13 21 mph 1001.9mb 47f 50f
6:30pm 13 20 mph 1001.5mb 47f 50f
6:24pm 11 26 mph 1001.5mb 46f 50f
6:18pm 15 24 mph 1001.4mb 46f 50f
6:12pm 10 20 mph 1001.5mb 45f 50f
6:06pm 14 25 mph 1001.5mb 45f 50f
6:00pm 13 28 mph 1001.6mb 45f 50f
5:36pm 10 25 mph 1001.6mb 45f 50f
5:30pm 14 24 mph 1001.6mb 45f 50f
5:24pm 10 26 mph 1001.8mb 45f 50f
5:18pm 16 25 mph 1001.9mb 45f 49f
5:12pm 13 23 mph 1001.9mb 45f 49f
5:06pm 15 22 mph 1002.2mb 45f 49f
5:00pm 11 17 mph 1002.2mb 45f 49f
4:36pm  -  mph 1002.5mb 45f -
4:30pm  -  mph 1002.7mb 45f -
4:24pm  -  mph 1002.8mb 45f -
4:18pm  -  mph 1003mb 45f -
4:12pm  -  mph 1003.1mb 45f -
4:06pm  -  mph 1003.2mb 45f -
4:00pm  -  mph 1003.2mb 45f -
3:36pm 14 33 mph - - 50f
3:30pm 14 23 mph 1003.4mb 45f 51f
3:24pm 20 32 mph 1003.5mb 45f 51f
3:18pm 16 29 mph 1003.6mb 45f 51f
3:12pm 13 21 mph 1003.7mb 45f 51f
3:06pm 13 23 mph 1003.5mb 45f 51f
3:00pm 14 30 mph 1003.5mb 45f 52f
2:36pm 13 28 mph 1004mb 46f 52f
2:30pm 13 26 mph 1003.9mb 46f 52f
2:24pm 15 31 mph 1003.9mb 46f 52f
2:18pm 20 30 mph 1003.9mb 46f 52f
2:12pm 16 23 mph 1004.1mb 46f 52f
2:06pm 11 30 mph 1004.2mb 46f 52f
2:00pm 14 24 mph 1004.4mb 46f 52f
1:36pm 15 26 mph 1004.8mb 46f 52f
1:30pm 16 25 mph 1005.1mb 46f 52f
1:24pm 15 36 mph 1005.2mb 47f 52f
1:18pm 20 30 mph 1005.1mb 47f 52f
1:12pm 15 25 mph 1005.2mb 47f 52f
1:06pm 15 26 mph 1005.3mb 47f 52f
1:00pm 16 28 mph 1005.4mb 47f 52f
12:36pm 14 17 mph 1005.8mb 48f 51f
12:30pm 8 15 mph 1005.7mb 49f 51f
12:24pm 10 20 mph 1005.7mb 50f 51f
12:18pm 10 21 mph 1005.8mb 50f 51f
12:12pm 13 22 mph 1005.9mb 51f 51f
12:06pm 8 16 mph 1006.1mb 51f 50f
12:00pm 9 16 mph 1006.3mb 51f 50f
11:36am 5 9 mph 1006.9mb 51f 49f
11:30am 7 13 mph 1006.9mb 51f 49f
11:24am 5 10 mph 1007.1mb 51f 49f
11:18am 6 14 mph 1007.2mb 51f 49f
11:12am 6 10 mph 1007.4mb 51f 49f
11:06am 7 13 mph 1007.3mb 51f 49f
11:00am 9 13 mph 1007.5mb 51f 49f
10:36am 7 13 mph 1007.7mb 52f 48f
10:30am 7 11 mph 1008mb 52f 48f
10:24am 6 11 mph 1008.3mb 52f 47f
10:18am 5 11 mph 1008.3mb 52f 47f
10:12am 6 9 mph 1008.3mb 52f 47f
10:06am 6 13 mph 1008.6mb 52f 47f
10:00am 6 9 mph 1008.7mb 52f 47f
9:36am 6 10 mph 1009mb 52f 47f
9:30am 6 10 mph 1008.9mb 52f 47f
9:24am 7 10 mph 1009.1mb 52f 47f
9:18am 7 11 mph 1009.1mb 52f 47f
9:12am 6 10 mph 1009.1mb 52f 47f
9:06am 5 8 mph 1009.2mb 52f 47f
9:00am 6 9 mph - - 47f
8:36am 5 10 mph 1009.8mb 52f 47f
8:30am 7 9 mph 1009.7mb 52f 47f
8:24am 6 8 mph 1009.7mb 52f 47f
8:18am 3 7 mph 1009.8mb 52f 47f
8:12am 6 9 mph 1009.8mb 52f 47f
8:06am 5 8 mph 1009.9mb 52f 47f
8:00am 5 7 mph 1010.1mb 52f 47f
7:36am 6 10 mph 1010.3mb 52f 47f
7:30am 6 14 mph 1010.3mb 52f 47f
7:24am 6 10 mph 1010.5mb 52f 47f
7:18am 7 11 mph 1010.5mb 52f 47f
7:12am 7 13 mph 1010.5mb 52f 47f
7:06am 7 11 mph 1010.5mb 52f 47f
7:00am 7 13 mph 1010.4mb 52f 47f
6:36am 5 7 mph - - 46f
6:30am 6 10 mph 1010.6mb 52f 46f
6:24am 3 8 mph 1010.7mb 52f 46f
6:18am 3 9 mph 1010.8mb 52f 46f
6:12am 5 8 mph 1010.9mb 52f 46f
6:06am 6 11 mph 1010.9mb 52f 47f
6:00am 6 10 mph 1011.1mb 52f 46f
5:36am 5 7 mph 1011.3mb 51f 46f
5:30am 5 9 mph 1011.3mb 51f 46f
5:24am 3 9 mph 1011.4mb 51f 47f
5:18am 3 8 mph 1011.4mb 51f 47f
5:12am 6 7 mph 1011.5mb 51f 47f
5:06am 5 9 mph 1011.5mb 51f 47f
5:00am 5 7 mph 1011.6mb 50f 47f
4:36am 5 9 mph 1011.4mb 47f 47f
4:30am 6 8 mph 1011.4mb 47f 47f
4:24am 5 10 mph 1011.4mb 46f 47f
4:18am 5 9 mph 1011.4mb 46f 47f
4:12am 6 8 mph 1011.4mb 46f 47f
4:06am 5 8 mph 1011.5mb 45f 47f
4:00am 6 9 mph 1011.5mb 45f 46f
3:54am 5 8 mph 1011.5mb 45f 46f
3:48am 3 10 mph 1011.6mb 45f 46f
3:36am 3 6 mph 1011.8mb 45f 46f
3:30am 6 8 mph 1011.9mb 45f 45f
3:24am 5 7 mph 1011.8mb 45f 45f
3:18am 3 5 mph 1011.8mb 45f 45f
3:12am 3 5 mph 1011.8mb 45f 45f
3:06am 5 6 mph 1011.9mb 45f 45f
3:00am 5 6 mph 1011.8mb 45f 45f
2:54am 5 7 mph 1011.8mb 45f 45f
2:48am 5 7 mph 1011.8mb 45f 45f
2:36am 5 6 mph 1011.8mb 45f 45f
2:30am 5 6 mph 1011.8mb 45f 45f
2:24am 3 6 mph 1011.8mb 45f 45f
2:18am 3 6 mph 1011.8mb 45f 45f
2:12am 3 5 mph 1011.9mb 45f 45f
2:06am 1 2 mph 1011.9mb 45f 45f
2:00am 2 3 mph 1011.9mb 45f 45f
1:54am 3 5 mph 1011.8mb 45f 46f
1:48am 2 5 mph 1011.9mb 45f 46f
1:36am 3 5 mph 1011.9mb 45f 46f
1:30am 2 3 mph 1011.9mb 45f 46f
1:24am 2 5 mph 1011.8mb 45f 46f
1:18am 2 5 mph 1011.9mb 46f 46f
1:12am 3 7 mph 1011.9mb 46f 46f
1:06am 3 6 mph 1011.9mb 46f 46f
1:00am 3 5 mph 1012mb 46f 46f
12:54am 3 5 mph 1011.9mb 46f 46f
12:48am 3 6 mph 1012mb 46f 46f
12:36am 3 5 mph 1012.1mb 46f 46f
12:30am 2 6 mph 1012mb 46f 46f
12:24am 3 6 mph 1012mb 46f 46f
12:18am 2 6 mph 1012.1mb 47f 46f
12:12am 3 6 mph 1012mb 47f 46f
12:06am 3 6 mph 1012.1mb 47f 46f
12:00am 3 6 mph 1012.1mb 47f 46f
Wed 12/17 11:54pm 3 7 mph 1012.1mb 47f 46f
11:48pm 2 6 mph 1012.1mb 47f 46f
11:36pm 6 7 mph 1012.1mb 48f 46f
11:30pm 3 6 mph 1012.2mb 48f 46f
11:24pm 5 7 mph 1012.2mb 49f 46f
11:18pm 3 6 mph 1012.1mb 49f 46f
11:12pm 6 7 mph 1012.1mb 49f 46f
11:06pm 3 6 mph 1012mb 50f 46f
11:00pm 5 6 mph 1012mb 51f 46f
10:54pm 3 6 mph 1011.9mb 51f 46f
10:48pm 3 7 mph 1011.9mb 51f 46f
10:36pm 5 6 mph 1011.9mb 51f 46f
10:30pm 3 6 mph 1011.9mb 51f 46f
10:24pm 5 6 mph 1011.8mb 51f 46f
10:18pm 3 6 mph 1011.8mb 51f 46f
10:12pm 3 6 mph 1011.7mb 51f 46f
10:06pm 6 7 mph 1011.6mb 52f 46f
10:00pm 5 7 mph 1011.7mb 52f 46f
9:54pm 3 5 mph 1011.7mb 52f 46f
9:48pm 3 7 mph 1011.7mb 52f 46f
9:36pm 3 6 mph 1011.7mb 52f 46f
9:30pm 3 6 mph - - 46f
9:24pm 3 5 mph 1011.7mb 52f 46f
9:18pm 3 7 mph 1011.7mb 52f 46f
9:12pm 5 6 mph 1011.8mb 52f 46f
9:06pm 3 5 mph 1011.8mb 52f 46f
9:00pm 3 6 mph 1011.8mb 52f 46f
8:36pm 3 5 mph 1011.7mb 52f 46f
8:30pm 5 6 mph 1011.7mb 51f 46f
8:24pm 3 5 mph 1011.6mb 51f 46f
8:18pm 3 6 mph 1011.6mb 51f 46f
8:12pm 3 5 mph 1011.6mb 51f 46f
8:06pm 3
mph
1011.6mb 51f 46f
8:00pm 2 5 mph 1011.6mb 51f 46f
7:54pm 3 5 mph 1011.5mb 51f 46f
7:48pm 3 6 mph 1011.5mb 51f 46f
7:36pm 3 6 mph 1011.6mb 51f 46f
7:30pm 5 6 mph 1011.6mb 51f 46f
7:24pm 5 6 mph 1011.5mb 51f 46f
7:18pm 5 6 mph 1011.5mb 51f 47f
7:12pm 5 7 mph 1011.5mb 51f 47f
7:06pm 5 6 mph 1011.4mb 51f 47f
7:00pm 5 6 mph 1011.4mb 50f 47f
6:54pm 5
mph
1011.4mb 50f 47f
6:48pm 3 5 mph 1011.3mb 49f 47f
6:36pm 3 5 mph 1011.2mb 48f 47f
6:30pm 3 5 mph 1011.2mb 47f 47f
6:24pm 2 5 mph 1011.1mb 47f 47f
6:18pm 3 5 mph 1011.1mb 46f 47f
6:12pm 2 5 mph 1011mb 46f 47f
6:06pm 1 5 mph 1011mb 45f 47f
6:00pm 3 5 mph 1010.8mb 45f 47f
5:54pm 3 7 mph 1010.9mb 45f 47f
5:48pm 3 7 mph 1010.8mb 45f 48f
5:36pm 6 7 mph 1010.8mb 45f 48f
5:30pm 2 5 mph 1010.8mb 45f 48f
5:24pm 3 6 mph 1010.8mb 45f 48f
5:18pm 3 6 mph 1010.8mb 45f 48f
5:12pm 3 6 mph 1010.7mb 45f 48f
5:06pm 3 6 mph 1010.7mb 45f 48f
5:00pm 3 6 mph 1010.7mb 45f 48f
4:54pm 2 5 mph 1010.7mb 45f 48f
4:48pm 2 6 mph 1010.7mb 45f 48f
4:36pm 3 6 mph 1010.4mb 45f 48f
4:30pm 5 9 mph 1010.4mb 45f 48f
4:24pm 3 7 mph 1010.5mb 45f 48f
4:18pm 5 8 mph 1010.3mb 45f 49f
4:12pm 5 6 mph 1010.2mb 45f 48f
4:06pm 2 6 mph 1010.1mb 45f 49f
4:00pm 3 8 mph 1010mb 45f 48f
3:54pm 3 8 mph 1010.1mb 45f 48f
3:48pm 5 6 mph 1010mb 45f 49f
3:36pm 3 5 mph - - 49f
3:30pm 2 5 mph 1009.8mb 45f 49f
3:24pm 5 7 mph 1009.7mb 45f 49f
3:18pm 5 7 mph 1009.7mb 45f 48f
3:12pm 2 5 mph 1009.7mb 45f 49f
3:06pm 5 7 mph 1009.8mb 45f 48f
3:00pm 2 6 mph 1009.7mb 45f 48f
2:54pm 2 5 mph 1009.6mb 45f 48f
2:48pm 3 5 mph 1009.6mb 45f 48f
2:36pm 3
mph
1009.5mb 45f 48f
2:30pm 3 7 mph 1009.4mb 45f 48f
2:24pm 6 8 mph 1009.3mb 45f 48f
2:18pm 5 7 mph 1009.3mb 45f 48f
2:12pm 5 8 mph 1009.3mb 45f 48f
2:06pm 6 9 mph 1009.3mb 45f 47f
2:00pm 3 8 mph 1009.2mb 45f 48f
1:54pm 6 9 mph 1009.3mb 45f 48f
1:48pm 7 11 mph 1009.2mb 45f 48f
1:36pm 5 8 mph 1009.1mb 45f 48f
1:30pm 5 8 mph 1009.2mb 45f 48f
1:24pm 6 10 mph 1009.2mb 45f 48f
1:18pm 10 15 mph 1009.3mb 45f 49f
1:12pm 10 13 mph 1009.3mb 45f 49f
1:06pm 5 9 mph 1009.3mb 45f 49f
1:00pm 7 10 mph 1009.4mb 45f 48f
12:54pm 3 6 mph 1009.4mb 45f 48f
12:48pm 5 10 mph 1009.4mb 45f 48f
12:36pm 6 10 mph 1009.4mb 45f 48f
12:30pm 6 9 mph 1009.3mb 45f 48f
12:24pm 5 7 mph 1009.3mb 46f 49f
12:18pm 5 7 mph - - 48f
12:12pm 3 11 mph 1009.4mb 46f 48f
12:06pm 6 13 mph 1009.4mb 46f 48f
12:00pm 7 14 mph 1009.3mb 46f 47f
11:54am 6 13 mph 1009.4mb 46f 47f
11:48am 8 15 mph 1009.4mb 46f 47f
11:36am 5 11 mph 1009.4mb 46f 46f
11:30am 6 8 mph 1009.4mb 47f 46f
11:24am 6 7 mph 1009.3mb 47f 46f
11:18am 5 6 mph 1009.3mb 47f 46f
11:12am 6 7 mph 1009.3mb 47f 46f
11:06am 6 7 mph 1009.4mb 47f 45f
11:00am 5 7 mph 1009.5mb 47f 45f
10:54am 6 7 mph 1009.4mb 48f 45f
10:48am 5 7 mph 1009.5mb 48f 45f
10:36am 6 7 mph 1009.5mb 49f 45f
10:30am 7 8 mph 1009.5mb 49f 45f
10:24am 5 8 mph 1009.5mb 49f 45f
10:18am 5 8 mph 1009.5mb 50f 44f
10:12am 6 8 mph 1009.4mb 50f 44f
10:06am 6 8 mph 1009.3mb 50f 44f
10:00am 6 8 mph - - 44f
9:54am 5 7 mph 1009.2mb 50f 44f
9:48am 6 8 mph 1009.2mb 51f 44f
9:36am 6 8 mph 1009.1mb 51f 44f
9:30am 6 7 mph 1009mb 51f 44f
9:24am 5 7 mph 1008.9mb 51f 44f
9:18am 5 8 mph 1008.8mb 52f 44f
9:12am 7 8 mph 1008.8mb 51f 44f
9:06am 3 6 mph 1008.7mb 51f 44f
9:00am 5 7 mph 1008.6mb 51f 44f
8:36am  -  mph 1008.3mb 51f -
8:30am  -  mph 1008.3mb 51f -
8:24am  -  mph 1008.3mb 51f -
8:18am  -  mph 1008.3mb 51f -
8:12am  -  mph 1008.2mb 51f -
8:06am  -  mph 1008.2mb 52f -
8:00am  -  mph 1008.2mb 51f -
7:54am  -  mph 1008.2mb 51f -
7:48am  -  mph 1008.2mb 51f -
7:36am 3 6 mph 1008.1mb 51f 44f
7:30am 3 6 mph 1008.1mb 52f 44f
7:24am 5
mph
1008.1mb 51f 44f
7:18am 2 3 mph 1008.1mb 51f 44f
7:12am 2 3 mph - - 44f
7:06am 2 5 mph 1008.1mb 51f 44f
7:00am 3 5 mph 1008mb 51f 44f
6:54am 3 5 mph 1008.1mb 51f 44f
6:48am 2 6 mph 1008.1mb 52f 44f
6:36am 3 5 mph 1008mb 51f 44f
6:30am 3 6 mph 1008.1mb 51f 44f
6:24am 3 6 mph 1008.1mb 51f 44f
6:18am 2 5 mph 1008.1mb 51f 44f
6:12am 3 5 mph 1008mb 51f 44f
6:06am 2 5 mph 1008mb 51f 44f
6:00am 2 6 mph 1008mb 51f 44f
5:54am 3 6 mph 1008mb 51f 44f
5:48am 2 6 mph 1007.9mb 51f 44f
5:36am 2 3 mph 1007.9mb 51f 44f
5:30am 3 6 mph 1007.9mb 51f 44f
5:24am 5 7 mph 1007.8mb 51f 44f
5:18am 3 5 mph 1007.8mb 51f 44f
5:12am 3 6 mph - - 44f
5:06am 3 6 mph 1007.8mb 51f 44f
5:00am 3 7 mph 1007.8mb 51f 44f
4:54am 3 6 mph 1007.8mb 51f 44f
4:48am 3 6 mph 1007.8mb 51f 44f
4:24am  -  mph 1007.8mb 51f -
4:18am  -  mph 1007.8mb 51f -
4:12am  -  mph 1007.8mb 50f -
4:06am  -  mph 1007.8mb 50f -
4:00am  -  mph 1007.8mb 49f -
3:54am  -  mph 1007.8mb 48f -
3:48am  -  mph 1007.8mb 47f -
3:36am 5 7 mph 1007.8mb 46f 44f
3:30am 6 7 mph 1007.8mb 45f 44f
3:24am 6 7 mph 1007.9mb 45f 44f
3:18am 5 7 mph 1007.9mb 45f 44f
3:12am 6 7 mph 1007.8mb 45f 44f
3:06am 6 8 mph 1007.9mb 44f 44f
3:00am 6 7 mph 1007.9mb 44f 44f
2:54am 6 7 mph 1007.9mb 44f 44f
2:48am 6 8 mph 1007.9mb 44f 44f
2:36am 6 8 mph 1007.9mb 44f 44f
2:30am 5 7 mph 1007.9mb 44f 44f
2:24am 5 7 mph 1007.9mb 44f 44f
2:18am 6 7 mph 1008mb 44f 44f
2:12am 6 8 mph 1008mb 44f 44f
2:06am 5 7 mph 1008mb 44f 44f
2:00am 5 8 mph 1008mb 44f 44f
1:54am 6 7 mph 1008mb 44f 44f
1:48am 5 6 mph 1008.1mb 44f 44f
1:36am 5 7 mph 1008.1mb 44f 44f
1:30am 6 8 mph 1008mb 44f 44f
1:24am 6 8 mph 1008mb 44f 44f
1:18am 6 7 mph 1008mb 44f 44f
1:12am 6 7 mph 1008mb 44f 44f
1:06am 6 7 mph 1008mb 44f 44f
1:00am 6 8 mph 1008mb 45f 44f
12:54am 6 8 mph 1008mb 45f 44f
12:48am 6 8 mph - - 44f
12:36am 6 8 mph 1008.2mb 45f 44f
12:30am 7 8 mph 1008.2mb 45f 44f
12:24am 6 8 mph 1008.3mb 45f 44f
12:18am 7 8 mph 1008.3mb 45f 44f
12:12am 6 10 mph - - 44f
12:06am 6 8 mph 1008.2mb 45f 44f
12:00am 6 8 mph 1008.2mb 45f 44f
Tue 12/16 11:54pm 6 9 mph 1008.2mb 46f 44f
11:48pm 6 8 mph 1008.2mb 46f 44f
11:36pm 6 8 mph - - 44f
11:30pm 6 9 mph 1008.2mb 47f 44f
11:24pm 6 8 mph 1008.2mb 47f 44f
11:18pm 6 7 mph 1008.2mb 47f 44f
11:12pm 5 9 mph 1008.2mb 47f 44f
11:06pm 6 8 mph 1008.2mb 47f 44f
11:00pm 6 9 mph 1008.2mb 48f 44f
10:54pm 6 8 mph 1008.2mb 48f 44f
10:48pm 7 8 mph 1008.2mb 49f 44f
10:36pm 6 10 mph 1008.2mb 49f 44f
10:30pm 6 8 mph 1008.2mb 50f 44f
10:24pm 6 9 mph 1008.1mb 51f 44f
10:18pm 5 9 mph 1008.1mb 51f 44f
10:12pm 6 8 mph 1008.1mb 51f 44f
10:06pm 6 8 mph 1008.1mb 51f 44f
10:00pm 6 9 mph 1008.1mb 51f 44f
9:54pm 6 9 mph 1008.1mb 51f 44f
9:48pm 7 9 mph 1008.1mb 51f 44f
9:36pm 7 9 mph 1008.1mb 51f 44f
9:30pm 6 9 mph 1008mb 51f 44f
9:24pm 6 9 mph 1008.1mb 51f 44f
9:18pm 7 10 mph 1008.1mb 51f 44f
9:12pm 7 10 mph 1008.1mb 51f 44f
9:06pm 6 8 mph 1008.1mb 51f 44f
9:00pm 6 8 mph 1008.1mb 51f 44f
8:54pm 5 9 mph 1008.1mb 51f 44f
8:48pm 6 8 mph 1008.2mb 51f 44f
8:36pm 6 8 mph 1008.2mb 51f 44f
8:30pm 6 9 mph 1008.2mb 51f 44f
8:24pm 6 9 mph 1008.2mb 51f 44f
8:18pm 6 8 mph 1008.2mb 51f 44f
8:12pm 6 9 mph 1008.3mb 51f 44f
8:06pm 6 9 mph 1008.2mb 52f 45f
8:00pm 6 9 mph 1008.2mb 51f 45f
7:54pm 7 9 mph 1008.3mb 51f 45f
7:48pm 7 9 mph 1008.3mb 51f 45f
7:36pm 6 8 mph 1008.3mb 52f 45f
7:30pm 6 8 mph 1008.3mb 51f 45f
7:24pm 6 8 mph 1008.3mb 51f 45f
7:18pm 6 9 mph 1008.3mb 51f 45f
7:12pm 6 9 mph 1008.4mb 51f 45f
7:06pm 6 8 mph 1008.5mb 51f 45f
7:00pm 6 8 mph 1008.5mb 51f 45f
6:54pm 6 8 mph 1008.4mb 51f 45f
6:48pm 5 7 mph 1008.4mb 51f 45f
6:36pm 5 7 mph 1008.3mb 51f 46f
6:30pm 5 6 mph 1008.3mb 51f 46f
6:24pm 5 6 mph 1008.3mb 51f 46f
6:18pm 3 6 mph 1008.4mb 51f 46f
6:12pm 5 8 mph 1008.3mb 51f 46f
6:06pm 6 9 mph 1008.2mb 51f 46f
6:00pm 6 8 mph 1008.3mb 51f 47f
5:54pm 6 8 mph 1008.3mb 51f 47f
5:48pm 6 7 mph 1008.4mb 51f 47f
5:36pm 3 7 mph 1008.4mb 49f 47f
5:30pm 5 7 mph 1008.4mb 49f 47f
5:24pm 3 7 mph 1008.4mb 48f 47f
5:18pm 3 6 mph 1008.4mb 47f 47f
5:12pm 5 7 mph 1008.4mb 46f 47f
5:06pm 3 7 mph 1008.4mb 45f 47f
5:00pm 5 6 mph 1008.4mb 45f 47f
4:54pm 5 6 mph 1008.5mb 44f 47f
4:48pm 3 5 mph 1008.4mb 44f 47f
4:36pm 3 6 mph 1008.3mb 44f 47f
4:30pm 3 6 mph 1008.3mb 44f 47f
4:24pm 3 6 mph 1008.2mb 44f 48f
4:18pm 3 5 mph 1008.2mb 44f 48f
4:12pm 3 6 mph 1008.1mb 44f 48f
4:06pm 3 6 mph 1008.1mb 44f 48f
4:00pm 3 6 mph 1008.2mb 44f 48f
3:54pm 3 6 mph 1008.3mb 44f 48f
3:48pm 6 9 mph 1008.1mb 44f 48f
3:36pm 3 7 mph 1008.1mb 44f 48f
3:30pm 5 7 mph 1008mb 44f 48f
3:24pm 5 7 mph 1008.1mb 44f 48f
3:18pm 3 9 mph 1008mb 44f 48f
3:12pm 5 7 mph 1008mb 44f 48f
3:06pm 5 8 mph 1007.9mb 44f 48f
3:00pm 5 8 mph 1007.9mb 44f 48f
2:54pm 6 9 mph 1007.8mb 44f 48f
2:48pm 5 9 mph 1007.7mb 44f 47f
2:36pm 5 9 mph 1007.6mb 43f 47f
2:30pm 3 8 mph 1007.6mb 43f 47f
2:24pm 3 7 mph 1007.6mb 43f 48f
2:18pm 3 6 mph 1007.7mb 43f 48f
2:12pm 6 10 mph 1007.7mb 43f 48f
2:06pm 6 9 mph 1007.7mb 43f 48f
2:00pm 5 8 mph 1007.8mb 43f 48f
1:54pm 6 8 mph 1007.8mb 44f 48f
1:48pm 5 9 mph 1007.8mb 43f 48f
1:36pm 5 7 mph 1007.8mb 43f 48f
1:30pm 6 9 mph 1007.8mb 43f 48f
1:24pm 5 8 mph 1007.8mb 43f 48f
1:18pm 6 9 mph 1007.8mb 43f 48f
1:12pm 3 6 mph 1007.8mb 43f 48f
1:06pm 6 10 mph 1007.8mb 43f 48f
1:00pm 5 9 mph 1007.7mb 44f 48f
12:54pm 5 8 mph 1007.8mb 44f 48f
12:48pm 5 8 mph 1007.8mb 44f 48f
12:36pm 6 10 mph 1007.8mb 44f 47f
12:30pm 3 10 mph 1007.8mb 44f 47f
12:24pm 6 7 mph 1007.8mb 44f 47f
12:18pm 3 6 mph 1007.8mb 44f 47f
12:12pm 6 8 mph 1007.8mb 44f 47f
12:06pm 5 9 mph 1007.9mb 44f 47f
12:00pm 5 8 mph 1008mb 45f 47f
11:54am 3 7 mph 1008mb 45f 47f
11:48am 5 7 mph 1008mb 45f 47f
11:36am 2 6 mph 1008mb 45f 47f
11:30am 3 6 mph - - 47f
11:24am 3 7 mph 1008mb 45f 47f
11:18am 5 7 mph 1008mb 45f 46f
11:12am 3 6 mph 1008mb 46f 46f
11:06am 3 7 mph 1008.1mb 46f 46f
11:00am 3 6 mph 1008.1mb 46f 46f
10:54am 2 7 mph 1008.1mb 46f 46f
10:48am 1 6 mph 1008.1mb 46f 45f
10:36am 2 7 mph 1008mb 47f 45f
10:30am 5 7 mph 1008mb 48f 45f
10:24am 3 8 mph 1008.1mb 49f 44f
10:18am 5 7 mph 1008mb 49f 44f
10:12am 3 6 mph 1008.1mb 51f 44f
10:06am 3 6 mph 1008.1mb 51f 44f
10:00am 2 6 mph 1008mb 51f 44f
9:54am 5 6 mph 1008mb 51f 44f
9:48am 3 6 mph 1008mb 51f 44f
9:36am 3 7 mph 1007.9mb 52f 43f
9:30am 5 7 mph 1007.9mb 52f 43f
9:24am 3 6 mph 1007.9mb 52f 43f
9:18am 3 6 mph 1007.8mb 52f 43f
9:12am 2 6 mph 1007.8mb 52f 43f
9:06am 5 6 mph 1007.8mb 52f 43f
9:00am 3 7 mph 1007.7mb 52f 43f
8:36am 2 5 mph 1007.8mb 52f 43f
8:30am 3 7 mph 1007.7mb 52f 43f
8:24am 5 8 mph 1007.6mb 52f 43f
8:18am 5 8 mph 1007.6mb 52f 43f
8:12am 5 7 mph 1007.6mb 52f 43f
8:06am 5 6 mph 1007.6mb 52f 43f
8:00am 5 8 mph 1007.5mb 52f 43f
7:54am 5 7 mph 1007.5mb 52f 43f
7:48am 5 6 mph 1007.5mb 52f 43f
7:36am 5 7 mph 1007.5mb 52f 43f
7:30am 5 7 mph 1007.5mb 52f 43f
7:24am 3 7 mph 1007.5mb 52f 43f
7:18am 5 8 mph 1007.5mb 52f 43f
7:12am 6 8 mph 1007.5mb 52f 43f
7:06am 3 6 mph 1007.5mb 52f 43f
7:00am 2 7 mph 1007.5mb 52f 43f
6:54am 5 8 mph 1007.5mb 52f 43f
6:48am 3 6 mph 1007.5mb 52f 43f
6:36am 3 8 mph 1007.4mb 52f 43f
6:30am 6 7 mph 1007.4mb 52f 43f
6:24am 6 8 mph 1007.4mb 52f 43f
6:18am 6 8 mph 1007.4mb 52f 43f
6:12am 5 9 mph 1007.3mb 52f 43f
6:06am 7 8 mph 1007.3mb 52f 43f
6:00am 6 9 mph - - 43f
5:54am 6 9 mph 1007.3mb 52f 43f
5:48am 6 8 mph 1007.3mb 52f 43f
5:36am 7 9 mph 1007.2mb 52f 43f
5:30am 6 10 mph 1007.2mb 52f 43f
5:24am 8 10 mph 1007.1mb 52f 43f
5:18am 6 9 mph 1007.1mb 52f 43f
5:12am 7 10 mph 1007.1mb 52f 43f
5:06am 5 10 mph 1007.1mb 52f 43f
5:00am 7 9 mph 1007.2mb 52f 43f
4:54am 6 9 mph 1007.2mb 52f 43f
4:48am 6 9 mph 1007.2mb 51f 43f
4:36am 6 8 mph 1007.2mb 51f 43f
4:30am 5 8 mph 1007.2mb 51f 43f
4:24am 5 10 mph 1007.2mb 51f 43f
4:18am 6 11 mph 1007.2mb 50f 43f
4:12am 6 10 mph 1007.2mb 50f 43f
4:06am 6 10 mph 1007.3mb 49f 43f
4:00am 7 10 mph 1007.3mb 48f 43f
3:54am 5 9 mph 1007.4mb 47f 43f
3:48am 5 9 mph 1007.4mb 47f 43f
3:24am  -  mph 1007.5mb 43f -
3:18am  -  mph 1007.5mb 43f -
3:12am  -  mph 1007.5mb 43f -
3:06am  -  mph 1007.5mb 43f -
3:00am  -  mph 1007.5mb 43f -
2:54am  -  mph 1007.5mb 42f -
2:48am  -  mph 1007.6mb 43f -
2:36am 6 7 mph 1007.6mb 42f 43f
2:30am 5 8 mph 1007.7mb 42f 43f
2:24am 6 8 mph 1007.7mb 42f 43f
2:18am 6 8 mph 1007.6mb 42f 43f
2:12am 5 7 mph 1007.6mb 42f 43f
2:06am 5 7 mph 1007.6mb 42f 43f
2:00am 6 8 mph 1007.7mb 42f 43f
1:54am 5 8 mph 1007.7mb 42f 43f
1:48am 5 7 mph 1007.7mb 42f 43f
1:36am 5 11 mph 1007.7mb 42f 44f
1:30am 5 11 mph 1007.6mb 42f 44f
1:24am 7 10 mph 1007.6mb 42f 43f
1:18am 6 8 mph 1007.6mb 42f 43f
1:12am 6 9 mph 1007.6mb 42f 43f
1:06am 6 9 mph 1007.6mb 42f 43f
1:00am 3 8 mph 1007.6mb 42f 43f
12:54am 5 8 mph 1007.6mb 42f 43f
12:48am 7 9 mph 1007.6mb 42f 43f
12:36am 6 8 mph 1007.6mb 42f 43f
12:30am 6 9 mph 1007.7mb 42f 43f
12:24am 6 8 mph 1007.8mb 42f 43f
12:18am 6 8 mph 1007.8mb 42f 43f
12:12am 6 8 mph 1007.8mb 42f 43f
12:06am 5 7 mph 1007.8mb 42f 43f
12:00am 5 8 mph 1007.8mb 42f 43f
Mon 12/15 11:54pm 6 7 mph 1007.8mb 42f 43f
11:48pm 6 7 mph 1007.8mb 42f 43f
11:36pm 6 9 mph 1007.9mb 42f 43f
11:30pm 6 7 mph 1007.9mb 42f 43f
11:24pm 6 9 mph 1008mb 42f 43f
11:18pm 6 8 mph 1008mb 42f 43f
11:12pm 6 8 mph 1008.1mb 42f 43f
11:06pm 6 8 mph 1008.1mb 42f 43f
11:00pm 3 8 mph 1008.1mb 42f 43f
10:54pm 3 8 mph 1008mb 42f 43f
10:48pm 5 8 mph 1008mb 42f 43f
10:36pm 5 8 mph 1008mb 42f 43f
10:30pm 6 9 mph 1007.9mb 42f 43f
10:24pm 6 8 mph 1007.9mb 43f 43f
10:18pm 6 8 mph 1007.8mb 43f 43f
10:12pm 6 9 mph 1007.8mb 43f 43f
10:06pm 7 8 mph 1007.8mb 43f 43f
10:00pm 6 8 mph 1007.8mb 43f 43f
9:54pm 6 9 mph 1007.8mb 43f 43f
9:48pm 5 9 mph 1007.8mb 43f 43f
9:36pm 6 9 mph 1007.9mb 43f 43f
9:30pm 6 8 mph 1007.9mb 43f 43f
9:24pm 6 8 mph 1007.9mb 43f 43f
9:18pm 7 9 mph 1007.9mb 43f 43f
9:12pm 6 10 mph 1007.8mb 43f 43f
9:06pm 6 10 mph 1007.9mb 43f 43f
9:00pm 8 11 mph 1007.9mb 43f 43f
8:54pm 8 11 mph 1007.9mb 43f 43f
8:48pm 6 9 mph 1007.9mb 43f 43f
8:36pm 7 10 mph 1007.9mb 43f 43f
8:30pm 7 10 mph 1007.9mb 43f 43f
8:24pm 6 10 mph 1008mb 43f 43f
8:18pm 6 10 mph 1008mb 43f 43f
8:12pm 6 9 mph 1007.9mb 44f 43f
8:06pm 8 10 mph 1007.9mb 44f 43f
8:00pm 7 10 mph 1008mb 44f 43f
7:54pm 8 10 mph 1007.9mb 43f 43f
7:48pm 7 10 mph 1007.9mb 44f 43f
7:36pm 6 10 mph 1007.9mb 44f 43f
7:30pm 6 10 mph 1007.9mb 44f 43f
7:24pm 7 11 mph 1008mb 44f 43f
7:18pm 8 10 mph 1008.1mb 44f 43f
7:12pm 6 10 mph 1008.2mb 44f 43f
7:06pm 6 8 mph 1008.1mb 44f 43f
7:00pm 6 8 mph 1008.1mb 44f 43f
6:54pm 6 8 mph 1008.1mb 44f 43f
6:48pm 7 10 mph 1008.2mb 44f 43f
6:36pm 5 9 mph 1008.3mb 44f 43f
6:30pm 6 8 mph 1008.3mb 44f 43f
6:24pm 7 9 mph 1008.4mb 44f 43f
6:18pm 9 13 mph 1008.4mb 44f 43f
6:12pm 9 11 mph 1008.4mb 44f 43f
6:06pm 7 10 mph 1008.5mb 44f 43f
6:00pm 6 9 mph 1008.5mb 43f 43f
5:54pm 7 10 mph 1008.5mb 43f 43f
5:48pm 6 10 mph 1008.6mb 43f 43f
5:36pm 7 10 mph 1008.7mb 43f 43f
5:30pm 7 10 mph 1008.7mb 43f 43f
5:24pm 6 11 mph 1008.8mb 43f 43f
5:18pm 5 9 mph 1008.8mb 42f 43f
5:12pm 7 9 mph 1008.8mb 42f 43f
5:06pm 6 9 mph 1008.9mb 42f 43f
5:00pm 7 9 mph 1008.8mb 42f 43f
4:54pm 6 10 mph 1008.8mb 42f 43f
4:48pm 7 10 mph 1008.9mb 42f 43f
4:36pm 9 11 mph 1008.9mb 42f 43f
4:30pm 8 11 mph 1008.9mb 42f 43f
4:24pm 7 10 mph 1008.9mb 42f 43f
4:18pm 6 10 mph 1008.9mb 42f 43f
4:12pm 5 13 mph 1008.9mb 42f 43f
4:06pm 7 10 mph 1008.9mb 42f 43f
4:00pm 7 11 mph 1008.9mb 42f 43f
3:54pm 6 9 mph 1009mb 42f 43f
3:48pm 7 10 mph 1009mb 42f 43f
3:36pm 7 9 mph 1008.9mb 42f 43f
3:30pm 6 9 mph 1008.9mb 42f 43f
3:24pm 6 9 mph 1008.9mb 42f 43f
3:18pm 8 10 mph 1008.9mb 42f 43f
3:12pm 7 9 mph 1008.9mb 42f 43f
3:06pm 6 9 mph 1008.9mb 42f 43f
3:00pm 6 10 mph - - 43f
2:54pm 8 10 mph 1009mb 42f 43f
2:48pm 7 11 mph 1009mb 42f 43f
2:36pm 7 10 mph 1008.9mb 42f 43f
2:30pm 7 9 mph 1008.9mb 42f 43f
2:24pm 6 10 mph 1008.9mb 42f 43f
2:18pm 6 10 mph 1008.9mb 42f 44f
2:12pm 7 10 mph 1008.9mb 42f 43f
2:06pm 7 9 mph 1009mb 42f 44f
2:00pm 6 9 mph 1009mb 42f 43f
1:54pm 5 9 mph 1009mb 42f 44f
1:48pm 7 10 mph 1009mb 42f 43f
1:36pm 3 10 mph 1009.1mb 42f 43f
1:30pm 7 8 mph 1009.1mb 42f 43f
1:24pm 5 8 mph 1009.3mb 42f 44f
1:18pm 6 9 mph 1009.4mb 42f 43f
1:12pm 6 8 mph 1009.4mb 42f 44f
1:06pm 7 10 mph 1009.4mb 42f 44f
1:00pm 6 10 mph 1009.4mb 42f 44f
12:54pm 6 10 mph 1009.3mb 42f 44f
12:48pm 7 9 mph 1009.3mb 42f 44f
12:36pm 8 11 mph 1009.3mb 42f 44f